When you browse on this site, cookies collect data to enhance your experience and personalize the content and advertising you see.
Visit our Privacy Policy to learn more. By continuing to use the site, you agree to this use of cookies and data.
  • In Lithuania
  • List of Countries
  • For 7 days
  • Water Temperature
  • Satellite Maps
  • Weather Map
  • Weather Widgets
  • user-avatar
    Login

    Hourly Weather Trujillo

    Today, 22 March, Friday

    Time Temperature Precipitation Wind Pressure Humidity
    00:00 +18°C° 0.2 mm 0 mps 647 mmHg 81%
    01:00 +18°C° 0 mm 0 mps 647 mmHg 80%
    02:00 +18°C° 0.1 mm 0 mps 646 mmHg 80%
    03:00 +19°C° 0.1 mm 1 mps 646 mmHg 80%
    04:00 +19°C° 0.1 mm 1 mps 646 mmHg 80%
    05:00 +20°C° 0.1 mm 1 mps 647 mmHg 77%
    06:00 +20°C° 0.1 mm 1 mps 647 mmHg 75%
    07:00 +21°C° 0.1 mm 1 mps 648 mmHg 72%
    08:00 +22°C° 0.2 mm 1 mps 649 mmHg 68%
    09:00 +24°C° 0.2 mm 1 mps 649 mmHg 65%
    10:00 +25°C° 0.2 mm 1 mps 650 mmHg 61%
    11:00 +25°C° 0.2 mm 1 mps 649 mmHg 62%
    12:00 +25°C° 0.2 mm 1 mps 649 mmHg 63%
    13:00 +25°C° 0.2 mm 1 mps 648 mmHg 64%
    14:00 +25°C° 0.3 mm 1 mps 647 mmHg 65%
    15:00 +25°C° 0.3 mm 1 mps 647 mmHg 66%
    16:00 +25°C° 0.3 mm 1 mps 646 mmHg 68%
    17:00 +23°C° 0.6 mm 1 mps 646 mmHg 74%
    18:00 +20°C° 0.6 mm 0 mps 646 mmHg 81%
    19:00 +18°C° 0.6 mm 0 mps 646 mmHg 87%
    20:00 +18°C° 0.2 mm 0 mps 647 mmHg 86%
    21:00 +18°C° 0.2 mm 0 mps 647 mmHg 85%
    22:00 +19°C° 0.2 mm 0 mps 648 mmHg 84%
    23:00 +18°C° 0.4 mm 0 mps 648 mmHg 83%

    Tomorrow, 23 March, Saturday

    Time Temperature Precipitation Wind Pressure Humidity
    00:00 +18°C° 0.4 mm 0 mps 647 mmHg 83%
    01:00 +18°C° 0.4 mm 0 mps 647 mmHg 83%
    02:00 +18°C° 0.3 mm 0 mps 647 mmHg 82%
    03:00 +18°C° 0.3 mm 0 mps 647 mmHg 82%
    04:00 +18°C° 0.3 mm 0 mps 647 mmHg 82%
    05:00 +18°C° 0.2 mm 0 mps 647 mmHg 80%
    06:00 +18°C° 0.2 mm 0 mps 648 mmHg 79%
    07:00 +19°C° 0.2 mm 0 mps 649 mmHg 77%
    08:00 +21°C° 0.2 mm 0 mps 650 mmHg 71%
    09:00 +24°C° 0.2 mm 1 mps 650 mmHg 65%
    10:00 +26°C° 0.2 mm 1 mps 651 mmHg 59%
    11:00 +26°C° 0.3 mm 1 mps 651 mmHg 60%
    12:00 +26°C° 0.3 mm 1 mps 650 mmHg 61%
    13:00 +25°C° 0.3 mm 1 mps 649 mmHg 63%
    14:00 +25°C° 0.3 mm 1 mps 648 mmHg 63%
    15:00 +25°C° 0.3 mm 1 mps 648 mmHg 63%
    16:00 +25°C° 0.3 mm 1 mps 647 mmHg 63%
    17:00 +24°C° 0.3 mm 1 mps 647 mmHg 69%
    18:00 +22°C° 0.3 mm 1 mps 647 mmHg 75%
    19:00 +19°C° 0.3 mm 0 mps 647 mmHg 82%
    20:00 +18°C° 0 mm 0 mps 647 mmHg 81%
    21:00 +20°C° 0 mm 1 mps 648 mmHg 80%
    22:00 +20°C° 0 mm 1 mps 648 mmHg 79%
    23:00 +20°C° 0 mm 1 mps 648 mmHg 78%

    Day after tomorrow, 24 March, Sunday

    Time Temperature Precipitation Wind Pressure Humidity
    00:00 +20°C° 0 mm 1 mps 647 mmHg 77%
    01:00 +20°C° 0 mm 1 mps 647 mmHg 76%
    02:00 +20°C° 0 mm 1 mps 647 mmHg 77%
    03:00 +17°C° 0 mm 0 mps 647 mmHg 77%
    04:00 +17°C° 0 mm 0 mps 646 mmHg 77%
    05:00 +18°C° 0 mm 0 mps 647 mmHg 73%
    06:00 +19°C° 0 mm 0 mps 648 mmHg 70%
    07:00 +20°C° 0 mm 0 mps 649 mmHg 67%
    08:00 +22°C° 0 mm 0 mps 650 mmHg 61%
    09:00 +26°C° 0 mm 1 mps 651 mmHg 56%
    10:00 +27°C° 0 mm 1 mps 651 mmHg 51%
    11:00 +27°C° 0.1 mm 1 mps 650 mmHg 54%
    12:00 +26°C° 0.1 mm 1 mps 649 mmHg 57%
    13:00 +25°C° 0.1 mm 1 mps 648 mmHg 61%
    14:00 +25°C° 0.2 mm 1 mps 647 mmHg 61%
    15:00 +25°C° 0.2 mm 1 mps 647 mmHg 62%
    16:00 +25°C° 0.2 mm 1 mps 646 mmHg 63%
    17:00 +24°C° 0 mm 1 mps 646 mmHg 68%
    18:00 +20°C° 0 mm 0 mps 646 mmHg 74%
    19:00 +19°C° 0 mm 0 mps 646 mmHg 80%
    20:00 +18°C° 0 mm 0 mps 646 mmHg 80%
    21:00 +18°C° 0 mm 0 mps 647 mmHg 79%
    22:00 +20°C° 0 mm 1 mps 647 mmHg 79%
    23:00 +20°C° 0 mm 1 mps 647 mmHg 78%

    25 March, Monday

    Time Temperature Precipitation Wind Pressure Humidity
    00:00 +20°C° 0 mm 1 mps 646 mmHg 77%
    01:00 +20°C° 0 mm 1 mps 646 mmHg 75%
    02:00 +19°C° 0 mm 1 mps 646 mmHg 75%
    03:00 +19°C° 0 mm 1 mps 646 mmHg 75%
    04:00 +19°C° 0 mm 1 mps 645 mmHg 75%
    05:00 +20°C° 0 mm 1 mps 646 mmHg 71%
    06:00 +21°C° 0 mm 1 mps 647 mmHg 67%
    07:00 +20°C° 0 mm 0 mps 648 mmHg 63%
    08:00 +24°C° 0 mm 1 mps 649 mmHg 56%
    09:00 +27°C° 0 mm 1 mps 650 mmHg 49%
    10:00 +29°C° 0 mm 1 mps 651 mmHg 41%
    11:00 +29°C° 0 mm 1 mps 649 mmHg 44%
    12:00 +28°C° 0 mm 1 mps 648 mmHg 46%
    13:00 +27°C° 0 mm 1 mps 647 mmHg 49%
    14:00 +27°C° 0.1 mm 1 mps 646 mmHg 52%
    15:00 +26°C° 0.1 mm 1 mps 646 mmHg 54%
    16:00 +25°C° 0.1 mm 1 mps 645 mmHg 57%
    17:00 +22°C° 0 mm 0 mps 645 mmHg 63%
    18:00 +20°C° 0 mm 0 mps 645 mmHg 69%
    19:00 +19°C° 0 mm 0 mps 645 mmHg 75%
    20:00 +18°C° 0 mm 0 mps 645 mmHg 74%
    21:00 +20°C° 0 mm 1 mps 646 mmHg 73%
    22:00 +20°C° 0 mm 1 mps 646 mmHg 73%
    23:00 +20°C° 0 mm 1 mps 646 mmHg 72%

    26 March, Tuesday

    Time Temperature Precipitation Wind Pressure Humidity
    00:00 +20°C° 0 mm 1 mps 646 mmHg 71%
    01:00 +20°C° 0 mm 1 mps 645 mmHg 70%
    02:00 +20°C° 0 mm 1 mps 645 mmHg 70%
    03:00 +20°C° 0 mm 1 mps 645 mmHg 69%
    04:00 +20°C° 0 mm 1 mps 645 mmHg 68%
    05:00 +20°C° 0 mm 1 mps 646 mmHg 66%
    06:00 +21°C° 0 mm 1 mps 647 mmHg 63%
    07:00 +22°C° 0 mm 1 mps 648 mmHg 61%
    08:00 +24°C° 0 mm 1 mps 648 mmHg 55%
    09:00 +26°C° 0 mm 1 mps 649 mmHg 49%
    10:00 +28°C° 0 mm 1 mps 650 mmHg 43%
    11:00 +28°C° 0 mm 1 mps 649 mmHg 44%
    12:00 +28°C° 0 mm 1 mps 648 mmHg 46%
    13:00 +28°C° 0 mm 1 mps 647 mmHg 47%
    14:00 +28°C° 0 mm 1 mps 647 mmHg 48%
    15:00 +27°C° 0 mm 1 mps 646 mmHg 49%
    16:00 +27°C° 0 mm 1 mps 646 mmHg 49%
    17:00 +25°C° 0 mm 1 mps 645 mmHg 58%
    18:00 +21°C° 0 mm 0 mps 645 mmHg 66%
    19:00 +19°C° 0 mm 0 mps 645 mmHg 75%
    20:00 +19°C° 0 mm 0 mps 645 mmHg 75%
    21:00 +21°C° 0 mm 1 mps 646 mmHg 75%
    22:00 +20°C° 0 mm 1 mps 646 mmHg 75%
    23:00 +20°C° 0.1 mm 1 mps 646 mmHg 74%

    27 March, Wednesday

    Time Temperature Precipitation Wind Pressure Humidity
    00:00 +20°C° 0.1 mm 1 mps 646 mmHg 73%
    01:00 +19°C° 0.1 mm 0 mps 645 mmHg 73%
    02:00 +18°C° 0.1 mm 0 mps 645 mmHg 74%
    03:00 +18°C° 0.1 mm 0 mps 645 mmHg 75%
    04:00 +18°C° 0.1 mm 0 mps 645 mmHg 75%
    05:00 +18°C° 0.2 mm 0 mps 646 mmHg 75%
    06:00 +19°C° 0.2 mm 0 mps 647 mmHg 74%
    07:00 +21°C° 0.2 mm 1 mps 648 mmHg 73%
    08:00 +21°C° 0.1 mm 0 mps 648 mmHg 68%
    09:00 +22°C° 0.1 mm 0 mps 649 mmHg 64%
    10:00 +23°C° 0.1 mm 0 mps 649 mmHg 59%
    11:00 +26°C° 0 mm 1 mps 649 mmHg 57%
    12:00 +27°C° 0 mm 1 mps 648 mmHg 54%
    13:00 +28°C° 0 mm 1 mps 647 mmHg 51%
    14:00 +27°C° 0.1 mm 1 mps 647 mmHg 55%
    15:00 +26°C° 0.1 mm 1 mps 646 mmHg 60%
    16:00 +25°C° 0.1 mm 1 mps 645 mmHg 65%
    17:00 +22°C° 0.1 mm 0 mps 646 mmHg 68%
    18:00 +21°C° 0.1 mm 0 mps 646 mmHg 72%
    19:00 +20°C° 0.1 mm 0 mps 646 mmHg 76%
    20:00 +20°C° 0 mm 0 mps 646 mmHg 77%
    21:00 +19°C° 0 mm 0 mps 647 mmHg 77%
    22:00 +21°C° 0 mm 1 mps 647 mmHg 77%
    23:00 +19°C° 0.1 mm 0 mps 647 mmHg 77%
    Show more